Time,TemperatureF,DewpointF,PressureIn,WindDirection,WindDirectionDegrees,WindSpeedMPH,WindSpeedGustMPH,Humidity,HourlyPrecipIn,Conditions,Clouds,dailyrainin,SoftwareType,DateUTC
2013-05-09 00:10:00,58.0,57.0,30.02,NE,51,0.0,0.0,97,0.02,,,0.00,weatherlink.com 1.10,2013-05-09 04:10:00,
2013-05-09 00:25:00,58.0,57.0,30.02,SE,136,0.0,1.0,97,0.02,,,0.00,weatherlink.com 1.10,2013-05-09 04:25:00,
2013-05-09 00:40:00,58.0,57.0,30.02,ENE,75,0.0,2.0,97,0.02,,,0.00,weatherlink.com 1.10,2013-05-09 04:40:00,
2013-05-09 00:55:00,58.0,58.0,30.01,ENE,77,0.0,0.0,98,0.02,,,0.01,weatherlink.com 1.10,2013-05-09 04:55:00,
2013-05-09 01:10:00,57.9,57.0,30.00,ESE,119,0.0,0.0,98,0.01,,,0.01,weatherlink.com 1.10,2013-05-09 05:10:00,
2013-05-09 01:25:00,57.9,57.0,30.00,ESE,120,0.0,0.0,98,0.01,,,0.01,weatherlink.com 1.10,2013-05-09 05:25:00,
2013-05-09 01:40:00,57.8,57.0,30.00,ESE,120,0.0,0.0,98,0.01,,,0.01,weatherlink.com 1.10,2013-05-09 05:40:00,
2013-05-09 01:55:00,57.8,57.0,29.99,ESE,120,0.0,0.0,98,0.00,,,0.01,weatherlink.com 1.10,2013-05-09 05:55:00,
2013-05-09 02:10:00,57.8,57.0,29.99,ESE,120,0.0,0.0,98,0.00,,,0.01,weatherlink.com 1.10,2013-05-09 06:10:00,
2013-05-09 02:25:00,57.8,57.0,29.98,East,99,0.0,0.0,98,0.00,,,0.01,weatherlink.com 1.10,2013-05-09 06:25:00,
2013-05-09 02:40:00,57.7,57.0,29.98,East,101,0.0,0.0,98,0.00,,,0.01,weatherlink.com 1.10,2013-05-09 06:40:00,
2013-05-09 02:55:00,57.8,57.0,29.98,East,101,0.0,0.0,98,0.00,,,0.01,weatherlink.com 1.10,2013-05-09 06:55:00,
2013-05-09 03:10:00,57.7,57.0,29.98,East,100,0.0,0.0,98,0.00,,,0.01,weatherlink.com 1.10,2013-05-09 07:10:00,
2013-05-09 03:25:00,57.6,57.0,29.98,East,101,0.0,0.0,98,0.00,,,0.01,weatherlink.com 1.10,2013-05-09 07:25:00,
2013-05-09 03:40:00,57.4,57.0,29.97,East,100,0.0,0.0,98,0.00,,,0.01,weatherlink.com 1.10,2013-05-09 07:40:00,
2013-05-09 03:55:00,57.1,57.0,29.97,ESE,102,0.0,0.0,98,0.00,,,0.01,weatherlink.com 1.10,2013-05-09 07:55:00,
2013-05-09 04:10:00,57.0,57.0,29.97,ESE,102,0.0,0.0,98,0.00,,,0.01,weatherlink.com 1.10,2013-05-09 08:10:00,
2013-05-09 04:25:00,56.8,56.0,29.96,East,101,0.0,0.0,98,0.00,,,0.01,weatherlink.com 1.10,2013-05-09 08:25:00,
2013-05-09 04:40:00,56.8,56.0,29.96,ESE,105,0.0,1.0,98,0.00,,,0.01,weatherlink.com 1.10,2013-05-09 08:40:00,
2013-05-09 04:55:00,56.4,56.0,29.96,ESE,105,0.0,0.0,98,0.00,,,0.01,weatherlink.com 1.10,2013-05-09 08:55:00,
2013-05-09 05:10:00,56.3,56.0,29.96,ESE,106,0.0,0.0,98,0.00,,,0.01,weatherlink.com 1.10,2013-05-09 09:10:00,
2013-05-09 05:25:00,56.2,56.0,29.96,ESE,105,0.0,0.0,98,0.00,,,0.01,weatherlink.com 1.10,2013-05-09 09:25:00,
2013-05-09 05:40:00,56.2,56.0,29.96,ESE,105,0.0,0.0,98,0.00,,,0.01,weatherlink.com 1.10,2013-05-09 09:40:00,
2013-05-09 05:55:00,56.2,56.0,29.96,ESE,105,0.0,0.0,98,0.00,,,0.01,weatherlink.com 1.10,2013-05-09 09:55:00,
2013-05-09 06:10:00,56.2,56.0,29.95,ESE,103,0.0,1.0,98,0.00,,,0.01,weatherlink.com 1.10,2013-05-09 10:10:00,
2013-05-09 06:25:00,55.9,55.0,29.96,ESE,105,0.0,1.0,98,0.00,,,0.01,weatherlink.com 1.10,2013-05-09 10:25:00,
2013-05-09 06:40:00,55.7,55.0,29.96,SW,224,0.0,1.0,98,0.00,,,0.01,weatherlink.com 1.10,2013-05-09 10:40:00,
2013-05-09 06:55:00,56.2,56.0,29.96,East,98,0.0,1.0,98,0.00,,,0.01,weatherlink.com 1.10,2013-05-09 10:55:00,
2013-05-09 07:10:00,56.6,56.0,29.96,NNE,12,0.0,0.0,98,0.00,,,0.01,weatherlink.com 1.10,2013-05-09 11:10:00,
2013-05-09 07:25:00,56.8,56.0,29.96,NNE,12,0.0,0.0,98,0.00,,,0.01,weatherlink.com 1.10,2013-05-09 11:25:00,
2013-05-09 07:40:00,57.2,57.0,29.97,SE,145,0.0,0.0,98,0.00,,,0.01,weatherlink.com 1.10,2013-05-09 11:40:00,
2013-05-09 07:55:00,57.1,56.0,29.97,ESE,103,1.0,4.0,97,0.00,,,0.01,weatherlink.com 1.10,2013-05-09 11:55:00,
2013-05-09 08:10:00,57.1,56.0,29.97,East,86,0.0,2.0,97,0.00,,,0.01,weatherlink.com 1.10,2013-05-09 12:10:00,
2013-05-09 08:25:00,57.4,57.0,29.97,East,95,0.0,1.0,97,0.00,,,0.01,weatherlink.com 1.10,2013-05-09 12:25:00,
2013-05-09 08:40:00,57.9,57.0,29.97,East,91,0.0,1.0,97,0.00,,,0.01,weatherlink.com 1.10,2013-05-09 12:40:00,
2013-05-09 08:55:00,58.0,57.0,29.97,SE,143,0.0,3.0,95,0.00,,,0.01,weatherlink.com 1.10,2013-05-09 12:55:00,
2013-05-09 09:10:00,58.4,57.0,29.96,SE,127,0.0,1.0,95,0.00,,,0.01,weatherlink.com 1.10,2013-05-09 13:10:00,
2013-05-09 09:25:00,59.0,57.0,29.95,ESE,102,1.0,1.0,94,0.00,,,0.01,weatherlink.com 1.10,2013-05-09 13:25:00,
2013-05-09 09:40:00,59.4,58.0,29.96,ESE,122,1.0,2.0,94,0.00,,,0.01,weatherlink.com 1.10,2013-05-09 13:40:00,
2013-05-09 09:56:00,60.2,58.0,29.96,ESE,105,1.0,4.0,92,0.00,,,0.01,weatherlink.com 1.10,2013-05-09 13:56:00,
2013-05-09 10:11:00,59.9,58.0,29.95,ESE,118,2.0,4.0,92,0.00,,,0.01,weatherlink.com 1.10,2013-05-09 14:11:00,
2013-05-09 10:26:00,59.9,57.0,29.95,ENE,77,2.0,3.0,90,0.00,,,0.01,weatherlink.com 1.10,2013-05-09 14:26:00,
2013-05-09 10:41:00,60.2,58.0,29.95,ESE,108,0.0,2.0,91,0.00,,,0.01,weatherlink.com 1.10,2013-05-09 14:41:00,
2013-05-09 10:56:00,60.2,58.0,29.95,ENE,58,2.0,3.0,92,0.00,,,0.01,weatherlink.com 1.10,2013-05-09 14:56:00,
2013-05-09 11:11:00,60.5,58.0,29.95,West,271,0.0,4.0,92,0.00,,,0.01,weatherlink.com 1.10,2013-05-09 15:11:00,
2013-05-09 11:26:00,61.1,58.0,29.94,NE,51,2.0,7.0,88,0.00,,,0.01,weatherlink.com 1.10,2013-05-09 15:26:00,
2013-05-09 11:41:00,61.1,57.0,29.94,East,89,3.0,5.0,87,0.00,,,0.01,weatherlink.com 1.10,2013-05-09 15:41:00,
2013-05-09 11:56:00,60.7,58.0,29.94,East,91,2.0,5.0,89,0.00,,,0.01,weatherlink.com 1.10,2013-05-09 15:56:00,
2013-05-09 12:11:00,60.6,58.0,29.94,SE,136,0.0,3.0,90,0.01,,,0.02,weatherlink.com 1.10,2013-05-09 16:11:00,
2013-05-09 12:26:00,60.5,58.0,29.94,ENE,70,1.0,5.0,90,0.01,,,0.02,weatherlink.com 1.10,2013-05-09 16:26:00,
2013-05-09 12:41:00,60.1,58.0,29.94,ESE,112,2.0,5.0,91,0.01,,,0.02,weatherlink.com 1.10,2013-05-09 16:41:00,
2013-05-09 12:56:00,59.8,58.0,29.93,ESE,118,0.0,2.0,93,0.03,,,0.04,weatherlink.com 1.10,2013-05-09 16:56:00,
2013-05-09 13:11:00,59.2,58.0,29.92,East,79,1.0,1.0,94,0.03,,,0.05,weatherlink.com 1.10,2013-05-09 17:11:00,
2013-05-09 13:26:00,59.2,58.0,29.92,ESE,102,1.0,2.0,95,0.04,,,0.06,weatherlink.com 1.10,2013-05-09 17:26:00,
2013-05-09 13:41:00,59.3,58.0,29.92,SSE,155,1.0,2.0,95,0.04,,,0.06,weatherlink.com 1.10,2013-05-09 17:41:00,
2013-05-09 14:11:00,59.9,59.0,29.90,East,95,1.0,1.0,96,0.01,,,0.06,weatherlink.com 1.10,2013-05-09 18:11:00,
2013-05-09 14:26:00,60.0,58.0,29.90,East,82,2.0,4.0,93,0.00,,,0.06,weatherlink.com 1.10,2013-05-09 18:26:00,
2013-05-09 14:41:00,62.1,60.0,29.90,South,186,1.0,4.0,91,0.00,,,0.06,weatherlink.com 1.10,2013-05-09 18:41:00,
2013-05-09 14:56:00,63.1,60.0,29.90,ENE,70,2.0,4.0,89,0.00,,,0.06,weatherlink.com 1.10,2013-05-09 18:56:00,
2013-05-09 15:11:00,63.6,59.0,29.89,SW,233,2.0,6.0,85,0.00,,,0.06,weatherlink.com 1.10,2013-05-09 19:11:00,
2013-05-09 15:26:00,64.3,59.0,29.88,NNE,30,1.0,5.0,83,0.00,,,0.06,weatherlink.com 1.10,2013-05-09 19:26:00,
2013-05-09 15:41:00,65.9,60.0,29.87,ESE,105,2.0,6.0,81,0.00,,,0.06,weatherlink.com 1.10,2013-05-09 19:41:00,
2013-05-09 15:56:00,64.3,58.0,29.87,North,358,2.0,6.0,80,0.00,,,0.06,weatherlink.com 1.10,2013-05-09 19:56:00,
2013-05-09 16:11:00,66.8,59.0,29.86,SE,140,5.0,5.0,76,0.00,,,0.06,weatherlink.com 1.10,2013-05-09 20:11:00,
2013-05-09 16:26:00,65.9,57.0,29.86,ENE,75,0.0,3.0,73,0.00,,,0.06,weatherlink.com 1.10,2013-05-09 20:26:00,
2013-05-09 16:41:00,65.9,58.0,29.86,ENE,61,1.0,2.0,76,0.00,,,0.06,weatherlink.com 1.10,2013-05-09 20:41:00,
2013-05-09 16:56:00,65.0,57.0,29.86,ENE,70,2.0,5.0,75,0.00,,,0.06,weatherlink.com 1.10,2013-05-09 20:56:00,
2013-05-09 17:11:00,64.2,58.0,29.86,East,82,1.0,6.0,79,0.00,,,0.06,weatherlink.com 1.10,2013-05-09 21:11:00,
2013-05-09 17:26:00,64.3,58.0,29.86,ENE,71,1.0,4.0,80,0.00,,,0.06,weatherlink.com 1.10,2013-05-09 21:26:00,
2013-05-09 17:41:00,63.3,58.0,29.86,SSW,200,2.0,5.0,83,0.00,,,0.06,weatherlink.com 1.10,2013-05-09 21:41:00,
2013-05-09 17:56:00,61.6,58.0,29.86,East,91,1.0,2.0,88,0.00,,,0.06,weatherlink.com 1.10,2013-05-09 21:56:00,
2013-05-09 18:11:00,60.5,58.0,29.86,East,84,2.0,6.0,91,0.01,,,0.07,weatherlink.com 1.10,2013-05-09 22:11:00,
2013-05-09 18:27:00,59.8,58.0,29.86,SE,135,1.0,2.0,93,0.01,,,0.07,weatherlink.com 1.10,2013-05-09 22:27:00,
2013-05-09 18:42:00,59.4,58.0,29.86,East,79,1.0,2.0,94,0.01,,,0.07,weatherlink.com 1.10,2013-05-09 22:42:00,
2013-05-09 18:57:00,59.4,58.0,29.87,East,79,0.0,0.0,95,0.02,,,0.08,weatherlink.com 1.10,2013-05-09 22:57:00,
2013-05-09 19:12:00,59.1,58.0,29.87,SSE,150,0.0,1.0,95,0.03,,,0.10,weatherlink.com 1.10,2013-05-09 23:12:00,
2013-05-09 19:27:00,58.6,57.0,29.87,ESE,120,0.0,1.0,95,0.03,,,0.10,weatherlink.com 1.10,2013-05-09 23:27:00,
2013-05-09 19:42:00,58.1,57.0,29.88,ESE,120,0.0,1.0,95,0.04,,,0.11,weatherlink.com 1.10,2013-05-09 23:42:00,
2013-05-09 19:57:00,57.8,57.0,29.88,SSE,163,0.0,1.0,96,0.03,,,0.11,weatherlink.com 1.10,2013-05-09 23:57:00,
2013-05-09 20:12:00,57.4,56.0,29.88,SSE,163,0.0,0.0,96,0.02,,,0.12,weatherlink.com 1.10,2013-05-10 00:12:00,
2013-05-09 20:27:00,57.1,56.0,29.88,SSE,163,0.0,0.0,96,0.02,,,0.12,weatherlink.com 1.10,2013-05-10 00:27:00,
2013-05-09 20:42:00,56.7,56.0,29.89,SSE,163,0.0,0.0,96,0.02,,,0.13,weatherlink.com 1.10,2013-05-10 00:42:00,
2013-05-09 20:57:00,56.5,56.0,29.89,SSE,163,0.0,0.0,97,0.02,,,0.13,weatherlink.com 1.10,2013-05-10 00:57:00,
2013-05-09 21:12:00,56.2,55.0,29.89,SSW,194,0.0,0.0,97,0.01,,,0.13,weatherlink.com 1.10,2013-05-10 01:12:00,
2013-05-09 21:27:00,56.0,55.0,29.89,SSW,194,0.0,0.0,97,0.01,,,0.13,weatherlink.com 1.10,2013-05-10 01:27:00,
2013-05-09 21:42:00,55.9,55.0,29.89,SE,145,0.0,0.0,97,0.00,,,0.13,weatherlink.com 1.10,2013-05-10 01:42:00,
2013-05-09 21:57:00,55.8,55.0,29.89,East,99,1.0,3.0,97,0.00,,,0.13,weatherlink.com 1.10,2013-05-10 01:57:00,
2013-05-09 22:12:00,55.4,55.0,29.89,ESE,114,0.0,0.0,97,0.00,,,0.13,weatherlink.com 1.10,2013-05-10 02:12:00,
2013-05-09 22:27:00,54.8,54.0,29.89,ESE,114,0.0,0.0,97,0.00,,,0.13,weatherlink.com 1.10,2013-05-10 02:27:00,
2013-05-09 22:42:00,54.3,54.0,29.89,ESE,114,0.0,0.0,97,0.00,,,0.13,weatherlink.com 1.10,2013-05-10 02:42:00,
2013-05-09 22:57:00,53.8,53.0,29.88,ESE,114,0.0,0.0,97,0.00,,,0.13,weatherlink.com 1.10,2013-05-10 02:57:00,
2013-05-09 23:12:00,53.3,53.0,29.88,ESE,114,0.0,0.0,97,0.00,,,0.13,weatherlink.com 1.10,2013-05-10 03:12:00,
2013-05-09 23:27:00,52.4,52.0,29.89,ESE,114,0.0,0.0,97,0.00,,,0.13,weatherlink.com 1.10,2013-05-10 03:27:00,
2013-05-09 23:42:00,51.5,51.0,29.88,ESE,115,0.0,0.0,97,0.00,,,0.13,weatherlink.com 1.10,2013-05-10 03:42:00,
2013-05-09 23:57:00,51.1,51.0,29.88,ESE,114,0.0,0.0,98,0.00,,,0.13,weatherlink.com 1.10,2013-05-10 03:57:00,